Location: ?ejeti?ky
(50.4060°N, 14.9016°E)
Time: 19:36:30
(UTC+00:00)

X-37B - Pass Details

Date: 14 December 2021
Orbit: 334 x 337 km, 45.0° (Epoch: 11 January)

Event Time Altitude Azimuth Distance (km) Brightness Sun altitude
Rises 16:26:16 0° 256° (WSW) 2,105 6.3 -13.3°
Reaches altitude 10° 16:28:25 10° 243° (WSW) 1,268 4.6 -13.6°
Maximum altitude 16:30:53 27° 183° (S) 688 2.1 -14.0°
Enters shadow 16:32:34 16° 132° (SE) 1,001 2.4 -14.3°
